This demonstration page uses our WeatherBlox Daily Observations layout. Learn more.

Left ArrowRight Arrow

Hourly Observations for April 11, 2016

Temp ( °F °C ) Dew Point ( °F °C ) Humidity (%) Winds ( mph kmh ) Pressure ( in mb ) Visibility ( mi km ) Precip ( " mm )
12:15 am 00:15 Clear 45 7 37 3 76 76 WNW 7 11 30.00 1016 10 16 0.00 0.00
12:35 am 00:35 Clear 45 7 37 3 76 76 W 6 9 30.00 1016 10 16 0.00 0.00
12:55 am 00:55 Clear 45 7 36 2 71 71 WNW 8 13 30.03 1017 10 16 0.00 0.00
1:15 am 01:15 Clear 43 6 36 2 76 76 N 9 15 30.03 1017 10 16 0.00 0.00
1:35 am 01:35 Clear 41 5 36 2 81 81 N 10 17 30.00 1016 10 16 0.00 0.00
1:55 am 01:55 Clear 43 6 36 2 76 76 NNE 12 19 30.03 1017 10 16 0.00 0.00
2:15 am 02:15 Partly Cloudy 41 5 34 1 76 76 NE 10 17 30.06 1018 10 16 0.00 0.00
2:35 am 02:35 Cloudy 43 6 34 1 71 71 NE 13 20 30.03 1017 10 16 0.00 0.00
2:55 am 02:55 Cloudy 43 6 32 0 66 66 NNE 16 26 30.03 1017 10 16 0.00 0.00
3:15 am 03:15 Cloudy 41 5 30 -1 66 66 NE 17 28 30.06 1018 10 16 0.00 0.00
3:35 am 03:35 Cloudy 41 5 28 -2 61 61 NNE 15 24 30.06 1018 10 16 0.00 0.00
3:55 am 03:55 Cloudy 39 4 28 -2 65 65 NNE 12 19 30.12 1020 10 16 0.00 0.00
4:15 am 04:15 Cloudy 39 4 28 -2 65 65 NNE 10 17 30.12 1020 10 16 0.00 0.00
4:35 am 04:35 Cloudy 37 3 27 -3 65 65 NNE 10 17 30.15 1021 10 16 0.00 0.00
4:55 am 04:55 Mostly Cloudy 37 3 25 -4 60 60 NNE 10 17 30.15 1021 10 16 0.00 0.00
5:15 am 05:15 Mostly Cloudy 36 2 25 -4 65 65 N 8 13 30.18 1022 10 16 0.00 0.00
5:35 am 05:35 Mostly Clear 34 1 25 -4 70 70 N 7 11 30.18 1022 10 16 0.00 0.00
5:55 am 05:55 Mostly Clear 36 2 25 -4 65 65 N 7 11 30.21 1023 10 16 0.00 0.00
6:15 am 06:15 Partly Cloudy 34 1 25 -4 70 70 N 7 11 30.21 1023 10 16 0.00 0.00
6:35 am 06:35 Mostly Cloudy 34 1 25 -4 70 70 N 5 7 30.21 1023 10 16 0.00 0.00
6:55 am 06:55 Mostly Cloudy 34 1 23 -5 65 65 Calm 30.21 1023 10 16 0.00 0.00
7:15 am 07:15 Mostly Cloudy 34 1 25 -4 70 70 NNW 3 6 30.24 1024 10 16 0.00 0.00
7:35 am 07:35 Cloudy 34 1 25 -4 70 70 N 5 7 30.24 1024 10 16 0.00 0.00
7:55 am 07:55 Cloudy 34 1 25 -4 70 70 N 7 11 30.27 1025 10 16 0.00 0.00
8:15 am 08:15 Cloudy 36 2 25 -4 65 65 N 8 13 30.27 1025 10 16 0.00 0.00
8:35 am 08:35 Cloudy 36 2 25 -4 65 65 NNE 12 19 30.27 1025 10 16 0.00 0.00
8:55 am 08:55 Cloudy 37 3 25 -4 60 60 NNE 12 19 30.24 1024 10 16 0.00 0.00
9:15 am 09:15 Cloudy 39 4 25 -4 56 56 NNE 9 15 30.24 1024 10 16 0.00 0.00
9:35 am 09:35 Cloudy 39 4 25 -4 56 56 NNE 8 13 30.27 1025 10 16 0.00 0.00
9:55 am 09:55 Mostly Cloudy 43 6 21 -6 42 42 NNE 12 19 30.27 1025 10 16 0.00 0.00
10:15 am 10:15 Partly Cloudy 43 6 21 -6 42 42 NNE 10 17 30.27 1025 10 16 0.00 0.00
10:35 am 10:35 Mostly Sunny 45 7 21 -6 39 39 NE 12 19 30.24 1024 10 16 0.00 0.00
10:55 am 10:55 Sunny 45 7 19 -7 37 37 NNE 14 22 30.24 1024 10 16 0.00 0.00
11:15 am 11:15 Sunny 46 8 21 -6 37 37 NNE 15 24 30.24 1024 10 16 0.00 0.00
11:35 am 11:35 Sunny 46 8 21 -6 37 37 NNE 10 17 30.24 1024 10 16 0.00 0.00
11:55 am 11:55 Sunny 48 9 23 -5 37 37 N 10 17 30.24 1024 10 16 0.00 0.00
12:15 pm 12:15 Sunny 48 9 21 -6 34 34 N 10 17 30.24 1024 10 16 0.00 0.00
12:35 pm 12:35 Sunny 50 10 23 -5 35 35 NNE 12 19 30.18 1022 10 16 0.00 0.00
12:55 pm 12:55 Sunny 52 11 23 -5 32 32 N 15 24 30.18 1022 10 16 0.00 0.00
1:15 pm 13:15 Sunny 54 12 25 -4 33 33 NNE 15 24 30.18 1022 10 16 0.00 0.00
1:35 pm 13:35 Sunny 54 12 25 -4 33 33 N 9 15 30.18 1022 10 16 0.00 0.00
1:55 pm 13:55 Sunny 54 12 25 -4 33 33 N 16 26 30.18 1022 10 16 0.00 0.00
2:15 pm 14:15 Sunny 54 12 27 -3 35 35 NNE 12 19 30.18 1022 10 16 0.00 0.00
2:35 pm 14:35 Sunny 55 13 25 -4 31 31 N 15 24 30.18 1022 10 16 0.00 0.00
2:55 pm 14:55 Sunny 55 13 25 -4 31 31 NNE 9 15 30.18 1022 10 16 0.00 0.00
3:15 pm 15:15 Sunny 55 13 25 -4 31 31 NNE 5 7 30.18 1022 10 16 0.00 0.00
3:35 pm 15:35 Sunny 55 13 25 -4 31 31 NNE 9 15 30.18 1022 10 16 0.00 0.00
3:55 pm 15:55 Sunny 55 13 25 -4 31 31 N 12 19 30.18 1022 10 16 0.00 0.00
4:15 pm 16:15 Sunny 55 13 25 -4 31 31 N 7 11 30.15 1021 10 16 0.00 0.00
4:35 pm 16:35 Sunny 55 13 27 -3 33 33 N 10 17 30.15 1021 10 16 0.00 0.00
4:55 pm 16:55 Sunny 55 13 25 -4 31 31 Calm 30.15 1021 10 16 0.00 0.00
5:15 pm 17:15 Sunny 55 13 25 -4 31 31 NNE 8 13 30.15 1021 10 16 0.00 0.00
5:35 pm 17:35 Sunny 55 13 25 -4 31 31 N 8 13 30.15 1021 10 16 0.00 0.00
5:55 pm 17:55 Sunny 55 13 25 -4 31 31 NNE 7 11 30.15 1021 10 16 0.00 0.00
6:15 pm 18:15 Sunny 55 13 25 -4 31 31 NNE 3 6 30.15 1021 10 16 0.00 0.00
6:35 pm 18:35 Sunny 55 13 27 -3 33 33 NNE 8 13 30.15 1021 10 16 0.00 0.00
6:55 pm 18:55 Sunny 55 13 25 -4 31 31 NE 8 13 30.15 1021 10 16 0.00 0.00
7:15 pm 19:15 Sunny 54 12 25 -4 33 33 ENE 9 15 30.18 1022 10 16 0.00 0.00
7:35 pm 19:35 Sunny 52 11 25 -4 35 35 E 10 17 30.18 1022 10 16 0.00 0.00
7:55 pm 19:55 Sunny 48 9 25 -4 40 40 E 10 17 30.21 1023 10 16 0.00 0.00
8:15 pm 20:15 Mostly Clear 46 8 23 -5 40 40 ENE 10 17 30.21 1023 10 16 0.00 0.00
8:35 pm 20:35 Partly Cloudy 45 7 21 -6 39 39 E 9 15 30.21 1023 10 16 0.00 0.00
8:55 pm 20:55 Clear 43 6 21 -6 42 42 E 10 17 30.24 1024 10 16 0.00 0.00
9:15 pm 21:15 Clear 45 7 21 -6 39 39 E 8 13 30.21 1023 10 16 0.00 0.00
9:35 pm 21:35 Clear 43 6 23 -5 46 46 E 7 11 30.24 1024 10 16 0.00 0.00
9:55 pm 21:55 Clear 41 5 23 -5 49 49 E 9 15 30.27 1025 10 16 0.00 0.00
10:15 pm 22:15 Clear 43 6 21 -6 42 42 ESE 10 17 30.27 1025 10 16 0.00 0.00
10:35 pm 22:35 Clear 41 5 21 -6 45 45 ESE 9 15 30.27 1025 10 16 0.00 0.00
10:55 pm 22:55 Clear 41 5 21 -6 45 45 E 8 13 30.27 1025 10 16 0.00 0.00
11:15 pm 23:15 Clear 39 4 19 -7 45 45 SE 8 13 30.27 1025 10 16 0.00 0.00
11:35 pm 23:35 Mostly Clear 39 4 21 -6 48 48 SE 7 11 30.27 1025 10 16 0.00 0.00
11:55 pm 23:55 Partly Cloudy 37 3 21 -6 52 52 SSE 10 17 30.30 1026 10 16 0.00 0.00

Powered by AerisWeather